www.pogodaiklimat.ru

Погода и климат >> Архив погоды >> Марокко >> Нуасер


ПОГОДА в Нуасере

  • Прогноз погоды в Нуасере
  • Монитор погоды в Нуасере

АРХИВ ПОГОДЫ в Нуасере

Время (UTC), дата Ветер
(напр.,м/с)
 
Видим.   Явления Облачность Т
(С)
Тd
(С)
f
(%)
Тe
(С)
Тes
(С)
Комфортность P
(гПа)
Po
(гПа)
Тmin
(С)
Tmax
(С)
R
(мм)
R24
(мм)
S
(см)
00 12.06 СВ 6 10 км ясно +18.0 +16.9 93 +17 +17 1012.8 988.6
03 12.06 С 8 10 км н/о +17.7 +15.3 86 +17 +17 1011.5 987.3
06 12.06 СВ 3 10 км ясно +17.1 +14.7 86 +17 +17 1011.4 987.2 +16.6
09 12.06 С 5 10 км 1/1 480 м
[Sc]
+20.7 +13.6 64 +23 +28 комфорт 1010.6 986.7
12 12.06 С 11 10 км ясно +24.6 +13.2 49 +27 +27 жарко 1009.8 986.2
15 12.06 С 14 10 км ясно +25.2 +14.0 50 +28 +28 жарко 1008.5 985.0
18 12.06 С 13 10 км ясно +23.4 +13.3 53 +27 +27 душно 1008.4 984.7 +25.7
21 12.06 С 8 10 км 3/3 480 м
[Sc]
+18.7 +18.2 97 +19 +19 1010.0 985.9
00 13.06 С 7 10 км 5/5 300 м
[St]
+18.8 +18.5 98 +20 +20 1010.2 986.1
03 13.06 С 9 10 км 6/6 300 м
[St]
+19.3 +18.6 96 +21 +21 комфорт 1009.6 985.6
06 13.06 СВ 8 10 км 6/6 480 м
[Sc]
+19.1 +17.8 92 +20 +20 1009.9 985.9 +18.3
09 13.06 С 7 10 км 8/8 480 м
[Cu med, cong]
+20.9 +16.9 78 +24 +25 комфорт 1010.6 986.7
12 13.06 СЗ 11 10 км 8/8 480 м
[Cu med, cong]
+22.2 +16.0 68 +26 +26 душно 1011.3 987.5
15 13.06 СЗ 14 10 км 9/9 600 м
[Cu med, cong]
+21.8 +15.2 66 +25 +25 комфорт 1012.7 988.8
21 13.06 СЗ 9 10 км 6/6 600 м
[Cu med, cong]
+17.0 +13.3 79 +16 +16 1016.9 992.5
00 14.06 СЗ 4 10 км 5/5 600 м
[Cu med, cong]
+15.8 +12.5 81 +15 +15 1017.6 993.1
03 14.06 З 2 10 км 5/5 600 м
[Cu med, cong]
+14.5 +12.0 85 +14 +14 1017.5 992.9
06 14.06 Ю 4 10 км 5/5 600 м
[Cu med, cong]
+13.7 +12.3 91 +12 +12 1018.5 993.8 +13.3
09 14.06 СВ 6 10 км 5/5 600 м
[Sc]
+19.5 +11.8 61 +20 +23 1019.1 994.9
12 14.06 С 12 10 км 4/4 600 м
[Sc]
+22.6 +11.7 50 +25 +25 комфорт 1018.9 994.9
15 14.06 С 10 10 км 4/4 600 м
[Cu med, cong]
+23.0 +12.0 50 +26 +26 жарко 1018.2 994.3
18 14.06 С 13 10 км 4/4 600 м
[Cu med, cong]
+21.1 +10.6 51 +23 +23 комфорт 1018.8 994.7 +23.1
21 14.06 С 11 10 км 4/4 600 м
[Cu med, cong]
+17.9 +12.4 70 +17 +17 1020.6 996.2
00 15.06 СВ 6 10 км 4/4 600 м
[Cu med, cong]
+16.3 +12.8 80 +15 +15 1020.6 996.1
03 15.06 СВ 10 10 км 4/4 600 м
[Cu med, cong]
+15.2 +13.1 87 +13 +13 1019.8 995.2
06 15.06 СВ 8 10 км 3/3 600 м
[Cu med, cong]
+14.5 +12.9 90 +12 +12 1020.1 995.4 +13.8
09 15.06 СВ 13 10 км 3/3 600 м
[Cu med, cong]
+19.3 +12.1 63 +19 +19 1019.4 995.2
12 15.06 С 13 10 км ясно +22.9 +12.2 51 +26 +26 жарко 1018.5 994.6
15 15.06 С 14 10 км ясно +22.8 +11.8 50 +25 +25 комфорт 1018.3 994.4
18 15.06 С 16 10 км ясно +20.7 +14.1 66 +22 +22 комфорт 1018.0 993.9 +23.2
21 15.06 С 9 10 км 3/3 600 м
[Sc]
+17.7 +14.4 81 +17 +17 1019.2 994.8
00 16.06 СВ 6 10 км 3/3 600 м
[Sc]
+15.9 +12.7 81 +15 +15 1018.3 993.8
03 16.06 СВ 5 10 км 5/3 600 м
[Sc Ci fib]
+15.4 +15.2 99 +14 +14 1017.5 993.0
06 16.06 СВ 2 10 км 6/4 600 м
[Cu hum Ac trans]
+15.5 +15.5 100 +15 +15 1018.5 994.0 +14.6
09 16.06 С 3 10 км 4/3 600 м
[Cu hum Ci fib]
+20.5 +13.0 62 +23 +29 комфорт 1019.1 995.0
12 16.06 СЗ 7 10 км 3/0
[Ci fib]
+24.3 +11.6 45 +26 +31 жарко 1018.5 994.7
15 16.06 СЗ 13 10 км 1/1 600 м
[Sc]
+23.9 +12.5 49 +26 +26 жарко 1018.3 994.4
18 16.06 СЗ 10 10 км 3/3 480 м
[Sc]
+21.4 +15.0 67 +25 +25 комфорт 1018.3 994.2 +24.8
21 16.06 С 8 10 км 4/4 480 м
[Sc]
+18.5 +15.7 84 +18 +18 1020.2 995.9
00 17.06 СВ 4 10 км 4/4 480 м
[Sc]
+17.5 +16.2 92 +17 +17 1019.8 995.4
03 17.06 СВ 4 10 км 4/4 480 м
[Sc]
+16.0 +16.0 100 +15 +15 1018.1 993.6
06 17.06 штиль 0 8000 м 3/3 480 м
[Sc]
+14.1 +13.8 98 +14 +14 1018.3 993.6 +13.9
09 17.06 С 6 10 км {дымка} 5/5 300 м
[Sc]
+19.8 +16.3 80 +22 +24 комфорт 1017.7 993.5
12 17.06 С 8 10 км ясно +25.1 +15.4 55 +28 +32 жарко 1016.3 992.6
15 17.06 С 10 10 км ясно +25.1 +13.0 47 +27 +28 жарко 1015.4 991.7
18 17.06 С 11 10 км 3/3 600 м
[Cu med, cong]
+21.5 +15.1 67 +25 +25 комфорт 1016.2 992.2 +26.0
21 17.06 С 5 10 км 3/3 600 м
[Sc]
+18.4 +16.2 87 +19 +19 1017.5 993.2
00 18.06 С 4 10 км 3/3 600 м
[Sc]
+17.0 +16.4 96 +16 +16 1017.3 992.9
03 18.06 ЮЗ 4 10 км 5/5 300 м
[St]
+15.2 +14.9 98 +14 +14 1017.6 993.1
06 18.06 Ю 1 10 км 5/5 300 м
[St]
+15.4 +15.1 98 +16 +16 1018.0 993.5 +14.1
09 18.06 СВ 3 10 км 4/4 480 м
[Sc]
+20.5 +15.5 73 +24 +29 комфорт 1018.1 994.0
12 18.06 С 3 10 км ясно +25.5 +10.9 40 +27 +44 жарко 1017.2 993.5
15 18.06 С 9 10 км ясно +27.0 +11.5 38 +28 +30 жарко 1016.1 992.5
18 18.06 С 12 10 км ясно +24.1 +15.1 57 +27 +27 жарко 1016.7 992.9 +27.6
21 18.06 СВ 7 10 км ясно +19.8 +16.6 82 +22 +22 комфорт 1018.4 994.2

 

Местоположение метеостанции Нуасер (Марокко): широта 33.37 долгота -7.58 высота над уровнем моря 206 м.

В архиве по умолчанию представлена погода в Нуасере за последнюю неделю. Архивные данные за месяц целиком и за предыдущие месяцы, начиная с января 2011 года, Вы можете получить, выбрав интересующий диапазон дат из раскрывающегося списка и нажав кнопку "Ввод!".


*Определитесь, кто Вы:
робот инопланетянин человек

Внимание! Время в таблицах - всемирное. Для получения местного времени необходимо прибавить поправку, которая равна 0 ч.

Смотрите также архив погоды в соседних городах и на ближайших метеорологических станциях:

Погода в Касабланке (Марокко) (24 км)
Погода в Мохаммедии (Марокко) (42 км)
Погода в Сеттате (Марокко) (47 км)
Погода в Хурибге (Марокко) (80 км)
Погода в Рабате (Марокко) (106 км)
Погода в Кенитре (Марокко) (137 км)
Погода в Касба-Тадле (Марокко) (153 км)
Погода в Бени-Меллале (Марокко) (157 км)
Погода в Сафи (Марокко) (196 км)
Погода в Мекнесе (Марокко) (198 км)

Пояснения к столбцам:

Ветер - указаны скорость ветра в м/с - средняя за 10 мин, порывы в срок и между сроками (в фигурных скобках) и направление, откуда дует ветер: С - северный, СВ - северо-восточный, В - восточный, ЮВ - юго-восточный, Ю - южный, ЮЗ - юго-западный, З - западный, СЗ - северо-западный.
Видимость - горизонтальная дальность видимости в метрах или километрах. При видимости от 1 до 10 км при отсутствии осадков обычно наблюдается дымка, при ухудшении видимости до 1 км и менее - туман. В сухую погоду видимость может ухудшаться дымом, пылью или мглою.
Явления - указаны атмосферные явления, наблюдавшиеся в срок или в последний час перед сроком; фигурными скобками обозначены явления, наблюдавшиеся между сроками (за 1-3 часа до срока); квадратными скобками обозначены град или гололедные отложения с указанием их диаметра в мм.
Облачность - указаны через наклонную черту общая и нижняя облачность в баллах и высота нижней границы облаков в метрах; квадратными скобками обозначены формы облаков: Ci - перистые, Cs - перисто-слоистые, Cc - перисто-кучевые, Ac - высококучевые, As - высокослоистые, Sc - слоисто-кучевые, Ns - слоисто-дождевые, Cu - кучевые, Cb - кучево-дождевые. Подробнее классификацию облаков см. в Атласе облаков (PDF).
T - Температура воздуха - температура, измеренная на высоте 2 м над землей.
Td - Температура точки росы - температура, при понижении до которой содержащийся в воздухе водяной пар достигнет насыщения.
f - Относительная влажность воздуха - влажноcть воздуха, измеренная на высоте 2 м над землей.
Te - Эффективная температура - температура, которую ощущает одетый по сезону человек в тени. Характеристика душности погоды. При расчете учитывается влияние влажности воздуха и скорости ветра на теплоощущения человека.
Tes - Эффективная температура на солнце - температура, которую ощущает человек, с поправкой на солнечный нагрев. Характеристика знойности погоды. Зависит от высоты солнца над горизонтом, облачности и скорости ветра. Ночью, в пасмурную погоду, а также при ветре 12 м/с и более поправка равна нулю.
P - Атмосферное давление - приведенное к уровню моря атмосферное давление.
Po - Атмосферное давление - измеренное на уровне метеостанции атмосферное давление.
Tmin - Минимальная температура - минимум температуры воздуха на высоте 2 м над землей.
Tmax - Максимальная температура - максимум температуры воздуха на высоте 2 м над землей.
R - Количество осадков - Количество выпавших осадков за период времени, мм. При наведении курсора мыши на число - период времени, за который выпало указанное количество осадков.
R24 - Количество осадков - Количество выпавших осадков за 24 часа, мм.
S - Снежный покров - Высота снежного покрова, см. При наведении курсора мыши на число - состояние снежного покрова и степень покрытия местности в баллах.